| time (UTC) | temp F | wind direction | speed MPH | gust MPH | rain 1hr in | rain 24hr in | rain mn in | humidity % | barometer mb |
| 20260510142415 | 74 | 310 | 0.0 | 1.0 | 0.00 | 0.00 | 0.00 | 60 | 1013.7 |
| 20260510141911 | 73 | 310 | 1.0 | 1.0 | 0.00 | 0.00 | 0.00 | 60 | 1013.8 |
| 20260510141409 | 73 | 310 | 0.0 | 1.0 | 0.00 | 0.00 | 0.00 | 62 | 1013.7 |
| 20260510140906 | 73 | 311 | 1.0 | 1.0 | 0.00 | 0.00 | 0.00 | 62 | 1013.8 |
| 20260510140401 | 74 | 313 | 0.0 | 0.0 | 0.00 | 0.00 | 0.00 | 64 | 1013.9 |
| 20260510135855 | 72 | 310 | 0.0 | 0.0 | 0.00 | 0.00 | 0.00 | 67 | 1013.7 |
| 20260510135351 | 71 | 310 | 0.0 | 1.0 | 0.00 | 0.00 | 0.00 | 70 | 1013.8 |
| 20260510134849 | 72 | 309 | 1.0 | 1.0 | 0.00 | 0.00 | 0.00 | 70 | 1013.8 |
| 20260510134345 | 71 | 307 | 1.0 | 2.0 | 0.00 | 0.00 | 0.00 | 70 | 1013.9 |
| 20260510133841 | 71 | 306 | 2.0 | 3.0 | 0.00 | 0.00 | 0.00 | 68 | 1013.9 |
| 20260510133338 | 70 | 305 | 0.0 | 0.0 | 0.00 | 0.00 | 0.00 | 70 | 1013.7 |
| 20260510132834 | 70 | 304 | 1.0 | 1.0 | 0.00 | 0.00 | 0.00 | 70 | 1013.9 |
| 20260510132332 | 69 | 304 | 0.0 | 1.0 | 0.00 | 0.00 | 0.00 | 73 | 1014.2 |
| 20260510131828 | 69 | 304 | 0.0 | 0.0 | 0.00 | 0.00 | 0.00 | 73 | 1014.1 |
| 20260510131326 | 67 | 304 | 0.0 | 0.0 | 0.00 | 0.00 | 0.00 | 74 | 1014.3 |
| 20260510130822 | 68 | 304 | 0.0 | 0.0 | 0.00 | 0.00 | 0.00 | 74 | 1014.3 |
| 20260510130320 | 66 | 304 | 0.0 | 0.0 | 0.00 | 0.00 | 0.00 | 76 | 1014.4 |
| 20260510125816 | 65 | 304 | 0.0 | 1.0 | 0.00 | 0.00 | 0.00 | 79 | 1014.5 |
| 20260510125312 | 64 | 304 | 1.0 | 1.0 | 0.00 | 0.00 | 0.00 | 80 | 1014.4 |
| 20260510124809 | 64 | 304 | 0.0 | 0.0 | 0.00 | 0.00 | 0.00 | 81 | 1014.3 |
| 20260510124306 | 63 | 304 | 0.0 | 1.0 | 0.00 | 0.00 | 0.00 | 82 | 1014.4 |
| 20260510123802 | 63 | 304 | 1.0 | 1.0 | 0.00 | 0.00 | 0.00 | 82 | 1014.3 |
| 20260510123257 | 62 | 304 | 0.0 | 0.0 | 0.00 | 0.00 | 0.00 | 84 | 1014.2 |
| 20260510122754 | 62 | 304 | 0.0 | 1.0 | 0.00 | 0.00 | 0.00 | 84 | 1014.3 |
| 20260510122250 | 61 | 304 | 0.0 | 0.0 | 0.00 | 0.00 | 0.00 | 86 | 1014.3 |
| 20260510121747 | 61 | 304 | 0.0 | 0.0 | 0.00 | 0.00 | 0.00 | 86 | 1014.1 |
| 20260510121244 | 60 | 304 | 0.0 | 0.0 | 0.00 | 0.00 | 0.00 | 88 | 1014.1 |
| 20260510120741 | 59 | 304 | 0.0 | 0.0 | 0.00 | 0.00 | 0.00 | 89 | 1013.9 |
| 20260510120238 | 58 | 304 | 0.0 | 1.0 | 0.00 | 0.00 | 0.00 | 92 | 1013.9 |
| 20260510115734 | 57 | 304 | 0.0 | 0.0 | 0.00 | 0.00 | 0.00 | 96 | 1014.0 |
| 20260510115232 | 57 | 304 | 0.0 | 0.0 | 0.00 | 0.00 | 0.00 | 99 | 1014.1 |
| 20260510114727 | 55 | 304 | 0.0 | 0.0 | 0.00 | 0.00 | 0.00 | 99 | 1014.1 |
| 20260510114224 | 55 | 304 | 0.0 | 0.0 | 0.00 | 0.00 | 0.00 | 99 | 1013.8 |
| 20260510113719 | 54 | 304 | 0.0 | 1.0 | 0.00 | 0.00 | 0.00 | 99 | 1013.8 |
| 20260510113217 | 53 | 304 | 0.0 | 0.0 | 0.00 | 0.00 | 0.00 | 99 | 1013.7 |
| 20260510112712 | 53 | 304 | 0.0 | 0.0 | 0.00 | 0.00 | 0.00 | 99 | 1013.8 |
| 20260510112210 | 52 | 305 | 0.0 | 0.0 | 0.00 | 0.00 | 0.00 | 99 | 1013.5 |
| 20260510111706 | 51 | 305 | 0.0 | 0.0 | 0.00 | 0.00 | 0.00 | 99 | 1013.5 |
| 20260510111203 | 50 | 306 | 0.0 | 0.0 | 0.00 | 0.00 | 0.00 | 99 | 1013.4 |
| 20260510110702 | 50 | 307 | 0.0 | 0.0 | 0.00 | 0.00 | 0.00 | 99 | 1013.0 |
| 20260510110201 | 49 | 308 | 0.0 | 0.0 | 0.00 | 0.00 | 0.00 | 99 | 1012.9 |
| 20260510105655 | 49 | 308 | 0.0 | 0.0 | 0.00 | 0.00 | 0.00 | 99 | 1013.0 |
| 20260510105150 | 49 | 308 | 0.0 | 0.0 | 0.00 | 0.00 | 0.00 | 99 | 1012.6 |
| 20260510104647 | 48 | 308 | 0.0 | 0.0 | 0.00 | 0.00 | 0.00 | 99 | 1012.6 |
| 20260510104143 | 48 | 308 | 0.0 | 0.0 | 0.00 | 0.00 | 0.00 | 99 | 1012.8 |
| 20260510103635 | 48 | 309 | 0.0 | 0.0 | 0.00 | 0.00 | 0.00 | 99 | 1012.7 |
| 20260510103131 | 48 | 309 | 0.0 | 0.0 | 0.00 | 0.00 | 0.00 | 99 | 1012.8 |
| 20260510102626 | 48 | 309 | 0.0 | 0.0 | 0.00 | 0.00 | 0.00 | 99 | 1012.7 |
| 20260510102122 | 48 | 310 | 0.0 | 0.0 | 0.00 | 0.00 | 0.00 | 99 | 1012.6 |
| 20260510101620 | 48 | 313 | 0.0 | 0.0 | 0.00 | 0.00 | 0.00 | 99 | 1012.5 |
| 20260510101118 | 48 | 316 | 0.0 | 0.0 | 0.00 | 0.00 | 0.00 | 99 | 1012.5 |
| 20260510100614 | 48 | 317 | 0.0 | 0.0 | 0.00 | 0.00 | 0.00 | 99 | 1012.5 |
| 20260510100112 | 48 | 320 | 0.0 | 0.0 | 0.00 | 0.00 | 0.00 | 99 | 1012.6 |
| 20260510095607 | 48 | 321 | 0.0 | 0.0 | 0.00 | 0.00 | 0.00 | 99 | 1012.5 |
| 20260510095102 | 48 | 325 | 0.0 | 0.0 | 0.00 | 0.00 | 0.00 | 99 | 1012.4 |
| 20260510094601 | 48 | 328 | 0.0 | 0.0 | 0.00 | 0.00 | 0.00 | 99 | 1012.5 |
| 20260510094057 | 48 | 333 | 0.0 | 0.0 | 0.00 | 0.00 | 0.00 | 99 | 1012.5 |
| 20260510093553 | 48 | 338 | 0.0 | 0.0 | 0.00 | 0.00 | 0.00 | 99 | 1012.4 |
| 20260510093050 | 48 | 339 | 0.0 | 0.0 | 0.00 | 0.00 | 0.00 | 99 | 1012.3 |
| 20260510092547 | 48 | 339 | 0.0 | 0.0 | 0.00 | 0.00 | 0.00 | 99 | 1012.4 |
| 20260510092046 | 48 | 341 | 0.0 | 0.0 | 0.00 | 0.00 | 0.00 | 99 | 1012.4 |
| 20260510091544 | 49 | 344 | 0.0 | 0.0 | 0.00 | 0.00 | 0.00 | 99 | 1012.6 |
| 20260510091039 | 49 | 346 | 0.0 | 0.0 | 0.00 | 0.00 | 0.00 | 99 | 1012.2 |
| 20260510090537 | 50 | 350 | 0.0 | 0.0 | 0.00 | 0.00 | 0.00 | 99 | 1012.3 |
| 20260510090032 | 49 | 352 | 0.0 | 0.0 | 0.00 | 0.00 | 0.00 | 99 | 1012.3 |
| 20260510085527 | 49 | 355 | 0.0 | 0.0 | 0.00 | 0.00 | 0.00 | 99 | 1012.5 |
| 20260510085023 | 49 | 358 | 0.0 | 0.0 | 0.00 | 0.00 | 0.00 | 99 | 1012.0 |
| 20260510084520 | 49 | 0 | 0.0 | 0.0 | 0.00 | 0.00 | 0.00 | 99 | 1012.0 |
| 20260510084017 | 49 | 4 | 0.0 | 0.0 | 0.00 | 0.00 | 0.00 | 99 | 1012.1 |
| 20260510083513 | 49 | 6 | 0.0 | 0.0 | 0.00 | 0.00 | 0.00 | 99 | 1012.1 |
| 20260510083009 | 49 | 9 | 0.0 | 0.0 | 0.00 | 0.00 | 0.00 | 98 | 1012.1 |
| 20260510082507 | 49 | 11 | 0.0 | 0.0 | 0.00 | 0.00 | 0.00 | 98 | 1012.0 |
| 20260510082006 | 49 | 14 | 0.0 | 0.0 | 0.00 | 0.00 | 0.00 | 98 | 1011.8 |
| 20260510081502 | 49 | 16 | 0.0 | 0.0 | 0.00 | 0.00 | 0.00 | 98 | 1011.6 |
| 20260510080958 | 49 | 19 | 0.0 | 0.0 | 0.00 | 0.00 | 0.00 | 98 | 1011.4 |
| 20260510080456 | 49 | 21 | 0.0 | 0.0 | 0.00 | 0.00 | 0.00 | 98 | 1011.5 |
| 20260510075954 | 50 | 24 | 0.0 | 0.0 | 0.00 | 0.00 | 0.00 | 98 | 1011.3 |
| 20260510075452 | 50 | 26 | 0.0 | 0.0 | 0.00 | 0.00 | 0.00 | 98 | 1011.4 |
| 20260510074948 | 50 | 29 | 0.0 | 0.0 | 0.00 | 0.00 | 0.00 | 98 | 1011.2 |
| 20260510074446 | 50 | 31 | 0.0 | 0.0 | 0.00 | 0.00 | 0.00 | 98 | 1011.1 |
| 20260510073942 | 50 | 36 | 0.0 | 0.0 | 0.00 | 0.00 | 0.00 | 98 | 1011.3 |
| 20260510073437 | 50 | 40 | 0.0 | 0.0 | 0.00 | 0.00 | 0.00 | 98 | 1011.4 |
| 20260510072934 | 50 | 43 | 0.0 | 0.0 | 0.00 | 0.00 | 0.00 | 98 | 1011.1 |
| 20260510072431 | 50 | 46 | 0.0 | 0.0 | 0.00 | 0.00 | 0.00 | 98 | 1011.1 |
| 20260510071926 | 51 | 49 | 0.0 | 0.0 | 0.00 | 0.00 | 0.00 | 98 | 1011.1 |
| 20260510071423 | 51 | 54 | 0.0 | 0.0 | 0.00 | 0.00 | 0.00 | 98 | 1011.1 |
| 20260510070921 | 51 | 59 | 0.0 | 0.0 | 0.00 | 0.00 | 0.00 | 98 | 1011.0 |
| 20260510070419 | 51 | 66 | 0.0 | 0.0 | 0.00 | 0.00 | 0.00 | 98 | 1011.0 |
| 20260510065914 | 51 | 69 | 0.0 | 0.0 | 0.00 | 0.00 | 0.00 | 98 | 1011.0 |
| 20260510065410 | 51 | 73 | 0.0 | 0.0 | 0.00 | 0.00 | 0.00 | 98 | 1010.9 |
| 20260510064907 | 51 | 76 | 0.0 | 0.0 | 0.00 | 0.00 | 0.00 | 98 | 1011.1 |
| 20260510064405 | 52 | 80 | 0.0 | 0.0 | 0.00 | 0.00 | 0.00 | 97 | 1011.0 |
| 20260510063901 | 52 | 83 | 0.0 | 0.0 | 0.00 | 0.00 | 0.00 | 98 | 1011.0 |
| 20260510063357 | 52 | 88 | 0.0 | 0.0 | 0.00 | 0.00 | 0.00 | 98 | 1011.0 |
| 20260510062854 | 52 | 92 | 0.0 | 0.0 | 0.00 | 0.00 | 0.00 | 97 | 1011.0 |
| 20260510062349 | 52 | 95 | 0.0 | 0.0 | 0.00 | 0.00 | 0.00 | 97 | 1011.0 |
| 20260510061845 | 52 | 98 | 0.0 | 0.0 | 0.00 | 0.00 | 0.00 | 97 | 1010.9 |
| 20260510061342 | 52 | 101 | 0.0 | 0.0 | 0.00 | 0.00 | 0.00 | 97 | 1011.1 |
| 20260510060838 | 52 | 103 | 0.0 | 0.0 | 0.00 | 0.00 | 0.00 | 97 | 1010.9 |
| 20260510060335 | 52 | 105 | 0.0 | 0.0 | 0.00 | 0.00 | 0.00 | 97 | 1010.9 |
| 20260510055832 | 52 | 108 | 0.0 | 0.0 | 0.00 | 0.00 | 0.00 | 96 | 1010.9 |
| 20260510055331 | 52 | 109 | 0.0 | 0.0 | 0.00 | 0.00 | 0.00 | 96 | 1010.9 |
| 20260510054831 | 53 | 111 | 0.0 | 0.0 | 0.00 | 0.00 | 0.00 | 96 | 1010.8 |
| 20260510054326 | 53 | 113 | 0.0 | 0.0 | 0.00 | 0.00 | 0.00 | 96 | 1010.9 |
| 20260510053821 | 53 | 115 | 0.0 | 0.0 | 0.00 | 0.00 | 0.00 | 96 | 1011.2 |
| 20260510053317 | 53 | 118 | 0.0 | 0.0 | 0.00 | 0.00 | 0.00 | 96 | 1010.8 |
| 20260510052814 | 53 | 118 | 0.0 | 0.0 | 0.00 | 0.00 | 0.00 | 96 | 1011.0 |
| 20260510052310 | 54 | 120 | 0.0 | 0.0 | 0.00 | 0.00 | 0.00 | 96 | 1010.9 |
| 20260510051806 | 54 | 122 | 0.0 | 0.0 | 0.00 | 0.00 | 0.00 | 95 | 1011.0 |
| 20260510051302 | 54 | 123 | 0.0 | 0.0 | 0.00 | 0.00 | 0.00 | 95 | 1010.9 |
| 20260510050759 | 54 | 123 | 0.0 | 0.0 | 0.00 | 0.00 | 0.00 | 95 | 1011.2 |
| 20260510050251 | 54 | 124 | 0.0 | 0.0 | 0.00 | 0.00 | 0.00 | 95 | 1010.9 |
| 20260510045748 | 54 | 124 | 0.0 | 0.0 | 0.00 | 0.00 | 0.00 | 95 | 1011.3 |
| 20260510045244 | 54 | 124 | 0.0 | 0.0 | 0.00 | 0.00 | 0.00 | 94 | 1011.1 |
| 20260510044741 | 55 | 124 | 0.0 | 0.0 | 0.00 | 0.00 | 0.00 | 94 | 1011.2 |
| 20260510044239 | 55 | 124 | 0.0 | 0.0 | 0.00 | 0.00 | 0.00 | 94 | 1011.1 |
| 20260510043734 | 55 | 124 | 0.0 | 0.0 | 0.00 | 0.00 | 0.00 | 94 | 1011.2 |
| 20260510043231 | 55 | 124 | 0.0 | 0.0 | 0.00 | 0.00 | 0.00 | 93 | 1011.1 |
| 20260510042728 | 55 | 124 | 0.0 | 0.0 | 0.00 | 0.00 | 0.00 | 93 | 1011.2 |
| 20260510042224 | 55 | 124 | 0.0 | 0.0 | 0.00 | 0.00 | 0.00 | 93 | 1011.1 |
| 20260510041721 | 55 | 124 | 0.0 | 0.0 | 0.00 | 0.00 | 0.00 | 93 | 1011.0 |
| 20260510041218 | 56 | 124 | 0.0 | 0.0 | 0.00 | 0.00 | 0.00 | 92 | 1011.1 |
| 20260510040715 | 56 | 124 | 0.0 | 0.0 | 0.00 | 0.00 | 0.00 | 92 | 1011.1 |
| 20260510040212 | 56 | 124 | 0.0 | 0.0 | 0.00 | 0.00 | 0.00 | 92 | 1011.0 |
| 20260510035707 | 56 | 124 | 0.0 | 0.0 | 0.00 | 0.01 | 0.01 | 91 | 1010.9 |
| 20260510035204 | 56 | 124 | 0.0 | 0.0 | 0.00 | 0.01 | 0.01 | 91 | 1011.0 |
| 20260510034659 | 57 | 124 | 0.0 | 0.0 | 0.00 | 0.01 | 0.01 | 91 | 1010.8 |
| 20260510034157 | 57 | 124 | 0.0 | 0.0 | 0.00 | 0.01 | 0.01 | 90 | 1011.0 |
| 20260510033653 | 57 | 124 | 0.0 | 0.0 | 0.00 | 0.01 | 0.01 | 89 | 1010.8 |
| 20260510033151 | 57 | 124 | 0.0 | 0.0 | 0.00 | 0.01 | 0.01 | 89 | 1010.7 |
| 20260510032647 | 57 | 124 | 0.0 | 0.0 | 0.00 | 0.01 | 0.01 | 88 | 1010.8 |
| 20260510032143 | 58 | 124 | 0.0 | 0.0 | 0.00 | 0.01 | 0.01 | 86 | 1010.8 |
| 20260510031637 | 58 | 124 | 0.0 | 0.0 | 0.00 | 0.01 | 0.01 | 86 | 1010.8 |
| 20260510031134 | 58 | 124 | 0.0 | 0.0 | 0.00 | 0.01 | 0.01 | 85 | 1010.7 |
| 20260510030629 | 59 | 124 | 0.0 | 0.0 | 0.00 | 0.01 | 0.01 | 85 | 1010.8 |
| 20260510030127 | 59 | 124 | 0.0 | 0.0 | 0.00 | 0.01 | 0.01 | 84 | 1010.8 |
| 20260510025624 | 60 | 124 | 0.0 | 0.0 | 0.00 | 0.01 | 0.01 | 84 | 1010.5 |
| 20260510025121 | 60 | 124 | 0.0 | 0.0 | 0.00 | 0.01 | 0.01 | 83 | 1010.8 |
| 20260510024618 | 60 | 124 | 0.0 | 0.0 | 0.00 | 0.01 | 0.01 | 83 | 1010.7 |
| 20260510024114 | 60 | 124 | 0.0 | 0.0 | 0.00 | 0.01 | 0.01 | 82 | 1010.8 |
| 20260510023610 | 60 | 124 | 0.0 | 0.0 | 0.00 | 0.01 | 0.01 | 82 | 1010.6 |
| 20260510023108 | 61 | 124 | 0.0 | 0.0 | 0.00 | 0.01 | 0.01 | 81 | 1010.8 |
| 20260510022607 | 61 | 124 | 0.0 | 0.0 | 0.00 | 0.01 | 0.01 | 81 | 1010.7 |
| 20260510022102 | 61 | 124 | 0.0 | 0.0 | 0.00 | 0.01 | 0.01 | 80 | 1010.5 |
| 20260510021558 | 61 | 124 | 0.0 | 0.0 | 0.00 | 0.01 | 0.01 | 80 | 1010.7 |
| 20260510021056 | 61 | 124 | 0.0 | 0.0 | 0.00 | 0.01 | 0.01 | 80 | 1010.5 |
| 20260510020550 | 61 | 124 | 0.0 | 0.0 | 0.00 | 0.01 | 0.01 | 80 | 1010.2 |
| 20260510020046 | 62 | 124 | 0.0 | 0.0 | 0.00 | 0.01 | 0.01 | 79 | 1010.4 |
| 20260510015542 | 62 | 124 | 0.0 | 0.0 | 0.00 | 0.01 | 0.01 | 79 | 1010.5 |
| 20260510015038 | 62 | 124 | 0.0 | 0.0 | 0.00 | 0.01 | 0.01 | 78 | 1010.3 |
| 20260510014535 | 62 | 124 | 0.0 | 0.0 | 0.00 | 0.01 | 0.01 | 77 | 1010.2 |
| 20260510014032 | 63 | 124 | 0.0 | 0.0 | 0.00 | 0.01 | 0.01 | 76 | 1010.3 |
| 20260510013526 | 64 | 124 | 0.0 | 0.0 | 0.00 | 0.01 | 0.01 | 75 | 1010.3 |
| 20260510013022 | 64 | 124 | 0.0 | 0.0 | 0.00 | 0.01 | 0.01 | 73 | 1010.2 |
| 20260510012516 | 64 | 124 | 0.0 | 0.0 | 0.00 | 0.01 | 0.01 | 72 | 1010.0 |
| 20260510012013 | 65 | 124 | 0.0 | 0.0 | 0.00 | 0.01 | 0.01 | 72 | 1009.8 |
| 20260510011507 | 65 | 124 | 0.0 | 0.0 | 0.00 | 0.01 | 0.01 | 72 | 1009.8 |
| 20260510011003 | 65 | 124 | 0.0 | 0.0 | 0.00 | 0.01 | 0.01 | 72 | 1009.9 |
| 20260510010500 | 65 | 124 | 0.0 | 0.0 | 0.00 | 0.01 | 0.01 | 72 | 1009.8 |
| 20260510005957 | 65 | 124 | 0.0 | 0.0 | 0.00 | 0.01 | 0.01 | 73 | 1010.0 |
| 20260510005453 | 65 | 124 | 0.0 | 0.0 | 0.00 | 0.01 | 0.01 | 73 | 1009.9 |
| 20260510004951 | 64 | 124 | 0.0 | 1.0 | 0.00 | 0.01 | 0.01 | 74 | 1010.0 |
| 20260510004448 | 64 | 124 | 0.0 | 0.0 | 0.00 | 0.01 | 0.01 | 75 | 1009.7 |
| 20260510003946 | 64 | 124 | 0.0 | 0.0 | 0.00 | 0.01 | 0.01 | 75 | 1009.5 |
| 20260510003442 | 65 | 124 | 0.0 | 0.0 | 0.00 | 0.01 | 0.01 | 74 | 1009.8 |
| 20260510002943 | 65 | 124 | 0.0 | 0.0 | 0.00 | 0.01 | 0.01 | 73 | 1009.6 |
| 20260510002439 | 65 | 124 | 0.0 | 1.0 | 0.00 | 0.01 | 0.01 | 73 | 1009.6 |
| 20260510001935 | 66 | 124 | 0.0 | 0.0 | 0.00 | 0.01 | 0.01 | 73 | 1009.7 |
| 20260510001433 | 66 | 124 | 0.0 | 0.0 | 0.00 | 0.01 | 0.01 | 72 | 1009.2 |
| 20260510000931 | 67 | 124 | 0.0 | 0.0 | 0.00 | 0.01 | 0.01 | 71 | 1009.6 |
| 20260510000426 | 67 | 123 | 0.0 | 0.0 | 0.00 | 0.01 | 0.01 | 70 | 1009.4 |
| 20260509235923 | 67 | 121 | 0.0 | 0.0 | 0.00 | 0.01 | 0.01 | 69 | 1009.3 |
| 20260509235420 | 68 | 120 | 0.0 | 0.0 | 0.00 | 0.01 | 0.01 | 68 | 1009.2 |
| 20260509234916 | 68 | 118 | 0.0 | 1.0 | 0.00 | 0.01 | 0.01 | 68 | 1009.3 |
| 20260509234413 | 69 | 117 | 0.0 | 0.0 | 0.00 | 0.01 | 0.01 | 67 | 1009.3 |
| 20260509233911 | 69 | 117 | 0.0 | 0.0 | 0.00 | 0.01 | 0.01 | 67 | 1009.2 |
| 20260509233409 | 70 | 116 | 0.0 | 0.0 | 0.00 | 0.01 | 0.01 | 66 | 1009.0 |
| 20260509232904 | 70 | 117 | 1.0 | 1.0 | 0.00 | 0.01 | 0.01 | 66 | 1009.2 |
| 20260509232403 | 70 | 116 | 3.0 | 3.0 | 0.00 | 0.01 | 0.01 | 66 | 1009.3 |
| 20260509231858 | 70 | 115 | 1.0 | 1.0 | 0.00 | 0.01 | 0.01 | 67 | 1009.0 |
| 20260509231355 | 71 | 114 | 0.0 | 1.0 | 0.00 | 0.01 | 0.01 | 68 | 1009.0 |
| 20260509230853 | 72 | 116 | 0.0 | 0.0 | 0.00 | 0.01 | 0.01 | 66 | 1008.9 |
| 20260509230350 | 73 | 115 | 0.0 | 0.0 | 0.00 | 0.01 | 0.01 | 61 | 1009.0 |
| 20260509225845 | 75 | 114 | 2.0 | 2.0 | 0.00 | 0.01 | 0.01 | 56 | 1009.0 |
| 20260509225342 | 75 | 115 | 0.0 | 0.0 | 0.00 | 0.01 | 0.01 | 55 | 1009.1 |
| 20260509224838 | 75 | 115 | 2.0 | 2.0 | 0.00 | 0.01 | 0.01 | 54 | 1009.0 |
| 20260509224334 | 74 | 112 | 1.0 | 1.0 | 0.00 | 0.01 | 0.01 | 57 | 1008.9 |
| 20260509223831 | 73 | 111 | 1.0 | 1.0 | 0.00 | 0.01 | 0.01 | 58 | 1008.8 |
| 20260509223328 | 73 | 111 | 0.0 | 1.0 | 0.00 | 0.01 | 0.01 | 59 | 1008.9 |
| 20260509222825 | 75 | 111 | 0.0 | 0.0 | 0.00 | 0.01 | 0.01 | 56 | 1009.3 |
| 20260509222320 | 75 | 112 | 0.0 | 0.0 | 0.00 | 0.01 | 0.01 | 55 | 1009.2 |
| 20260509221816 | 74 | 109 | 0.0 | 0.0 | 0.00 | 0.01 | 0.01 | 58 | 1009.1 |
| 20260509221313 | 74 | 113 | 4.0 | 5.0 | 0.00 | 0.01 | 0.01 | 56 | 1008.9 |
| 20260509220808 | 76 | 117 | 0.0 | 0.0 | 0.00 | 0.01 | 0.01 | 54 | 1009.2 |
| 20260509220305 | 75 | 122 | 0.0 | 0.0 | 0.00 | 0.01 | 0.01 | 54 | 1009.0 |
| 20260509215800 | 75 | 120 | 3.0 | 3.0 | 0.00 | 0.01 | 0.01 | 56 | 1009.1 |
| 20260509215257 | 75 | 112 | 3.0 | 5.0 | 0.00 | 0.01 | 0.01 | 55 | 1009.0 |
| 20260509214754 | 75 | 104 | 2.0 | 3.0 | 0.00 | 0.01 | 0.01 | 56 | 1009.1 |
| 20260509214251 | 75 | 106 | 2.0 | 2.0 | 0.00 | 0.01 | 0.01 | 55 | 1008.8 |
| 20260509213748 | 75 | 104 | 5.0 | 6.0 | 0.00 | 0.01 | 0.01 | 54 | 1009.0 |
| 20260509213243 | 75 | 110 | 2.0 | 2.0 | 0.00 | 0.01 | 0.01 | 55 | 1009.1 |
| 20260509212741 | 75 | 110 | 0.0 | 1.0 | 0.00 | 0.01 | 0.01 | 53 | 1009.1 |
| 20260509212239 | 76 | 120 | 3.0 | 5.0 | 0.00 | 0.01 | 0.01 | 54 | 1009.1 |
| 20260509211734 | 75 | 123 | 0.0 | 0.0 | 0.00 | 0.01 | 0.01 | 55 | 1008.9 |
| 20260509211230 | 76 | 125 | 2.0 | 5.0 | 0.00 | 0.01 | 0.01 | 54 | 1009.0 |
| 20260509210727 | 77 | 119 | 0.0 | 1.0 | 0.00 | 0.01 | 0.01 | 54 | 1008.9 |
| 20260509210225 | 76 | 123 | 0.0 | 1.0 | 0.00 | 0.01 | 0.01 | 54 | 1008.9 |
| 20260509205724 | 76 | 123 | 2.0 | 5.0 | 0.00 | 0.01 | 0.01 | 54 | 1008.7 |
| 20260509205224 | 76 | 121 | 1.0 | 1.0 | 0.00 | 0.01 | 0.01 | 55 | 1008.9 |
| 20260509204720 | 76 | 119 | 5.0 | 7.0 | 0.00 | 0.01 | 0.01 | 54 | 1008.6 |
| 20260509204217 | 74 | 117 | 1.0 | 1.0 | 0.00 | 0.01 | 0.01 | 58 | 1008.9 |
| 20260509203713 | 75 | 115 | 0.0 | 0.0 | 0.00 | 0.01 | 0.01 | 56 | 1009.0 |
| 20260509203211 | 73 | 116 | 2.0 | 3.0 | 0.00 | 0.01 | 0.01 | 57 | 1008.9 |
| 20260509202706 | 74 | 115 | 3.0 | 5.0 | 0.00 | 0.01 | 0.01 | 58 | 1009.0 |
| 20260509202201 | 74 | 115 | 2.0 | 2.0 | 0.00 | 0.01 | 0.01 | 57 | 1008.9 |
| 20260509201657 | 73 | 115 | 0.0 | 1.0 | 0.00 | 0.01 | 0.01 | 61 | 1009.1 |
| 20260509201154 | 73 | 115 | 0.0 | 0.0 | 0.00 | 0.01 | 0.01 | 58 | 1009.2 |
| 20260509200650 | 74 | 116 | 0.0 | 1.0 | 0.00 | 0.01 | 0.01 | 59 | 1009.5 |
| 20260509200145 | 73 | 117 | 0.0 | 0.0 | 0.00 | 0.01 | 0.01 | 59 | 1009.3 |
| 20260509195641 | 72 | 116 | 1.0 | 1.0 | 0.00 | 0.01 | 0.01 | 62 | 1009.5 |
| 20260509195137 | 71 | 117 | 0.0 | 0.0 | 0.00 | 0.01 | 0.01 | 62 | 1009.6 |
| 20260509194631 | 71 | 116 | 2.0 | 2.0 | 0.00 | 0.01 | 0.01 | 63 | 1009.6 |
| 20260509194128 | 71 | 117 | 1.0 | 1.0 | 0.00 | 0.01 | 0.01 | 60 | 1009.6 |
| 20260509193624 | 71 | 118 | 3.0 | 3.0 | 0.00 | 0.01 | 0.01 | 60 | 1009.8 |
| 20260509193120 | 72 | 120 | 0.0 | 0.0 | 0.00 | 0.01 | 0.01 | 59 | 1009.7 |
| 20260509192617 | 71 | 121 | 2.0 | 2.0 | 0.00 | 0.01 | 0.01 | 61 | 1009.7 |
| 20260509192112 | 71 | 123 | 3.0 | 5.0 | 0.00 | 0.01 | 0.01 | 62 | 1009.8 |
| 20260509191606 | 71 | 124 | 0.0 | 1.0 | 0.00 | 0.01 | 0.01 | 62 | 1009.6 |
| 20260509191103 | 71 | 124 | 3.0 | 3.0 | 0.00 | 0.01 | 0.01 | 62 | 1009.7 |
| 20260509190600 | 70 | 124 | 1.0 | 2.0 | 0.00 | 0.01 | 0.01 | 62 | 1009.8 |
| 20260509190057 | 70 | 124 | 0.0 | 1.0 | 0.00 | 0.01 | 0.01 | 62 | 1010.0 |
| 20260509185555 | 70 | 124 | 0.0 | 0.0 | 0.00 | 0.01 | 0.01 | 67 | 1010.1 |
| 20260509185050 | 69 | 124 | 1.0 | 1.0 | 0.00 | 0.01 | 0.01 | 66 | 1010.5 |
| 20260509184549 | 68 | 124 | 0.0 | 0.0 | 0.00 | 0.01 | 0.01 | 68 | 1010.4 |
| 20260509184045 | 67 | 122 | 0.0 | 0.0 | 0.00 | 0.01 | 0.01 | 71 | 1010.6 |
| 20260509183540 | 66 | 118 | 0.0 | 0.0 | 0.00 | 0.01 | 0.01 | 74 | 1010.6 |
| 20260509183037 | 66 | 117 | 0.0 | 0.0 | 0.05 | 0.01 | 0.01 | 72 | 1010.6 |
| 20260509182533 | 68 | 116 | 0.0 | 1.0 | 0.05 | 0.01 | 0.01 | 66 | 1010.6 |
| 20260509182031 | 69 | 116 | 0.0 | 0.0 | 0.00 | 0.00 | 0.00 | 62 | 1010.6 |
| 20260509181529 | 69 | 116 | 3.0 | 3.0 | 0.00 | 0.00 | 0.00 | 60 | 1010.4 |
| 20260509181026 | 70 | 116 | 1.0 | 1.0 | 0.00 | 0.00 | 0.00 | 61 | 1010.7 |
| 20260509180521 | 70 | 115 | 2.0 | 2.0 | 0.00 | 0.00 | 0.00 | 60 | 1010.6 |
| 20260509180019 | 71 | 116 | 0.0 | 0.0 | 0.00 | 0.00 | 0.00 | 60 | 1010.9 |
| 20260509175514 | 71 | 117 | 4.0 | 5.0 | 0.00 | 0.00 | 0.00 | 59 | 1010.8 |
| 20260509175011 | 71 | 116 | 5.0 | 8.0 | 0.00 | 0.00 | 0.00 | 58 | 1010.9 |
| 20260509174508 | 71 | 117 | 3.0 | 5.0 | 0.00 | 0.00 | 0.00 | 60 | 1011.0 |
| 20260509174002 | 70 | 117 | 0.0 | 1.0 | 0.00 | 0.00 | 0.00 | 60 | 1011.0 |
| 20260509173457 | 70 | 119 | 2.0 | 2.0 | 0.00 | 0.00 | 0.00 | 60 | 1010.8 |
| 20260509172954 | 70 | 119 | 1.0 | 2.0 | 0.00 | 0.00 | 0.00 | 60 | 1011.0 |
| 20260509172451 | 70 | 117 | 4.0 | 6.0 | 0.00 | 0.00 | 0.00 | 60 | 1010.9 |
| 20260509171946 | 70 | 118 | 2.0 | 3.0 | 0.00 | 0.00 | 0.00 | 60 | 1011.0 |
| 20260509171442 | 70 | 118 | 4.0 | 6.0 | 0.00 | 0.00 | 0.00 | 60 | 1010.8 |
| 20260509170938 | 70 | 118 | 0.0 | 1.0 | 0.00 | 0.00 | 0.00 | 61 | 1011.0 |
| 20260509170434 | 70 | 119 | 1.0 | 1.0 | 0.00 | 0.00 | 0.00 | 60 | 1010.9 |
| 20260509165930 | 70 | 123 | 1.0 | 2.0 | 0.00 | 0.00 | 0.00 | 59 | 1011.0 |
| 20260509165424 | 70 | 129 | 4.0 | 5.0 | 0.00 | 0.00 | 0.00 | 59 | 1011.1 |
| 20260509164920 | 70 | 128 | 3.0 | 3.0 | 0.00 | 0.00 | 0.00 | 59 | 1010.9 |
| 20260509164417 | 70 | 136 | 1.0 | 1.0 | 0.00 | 0.00 | 0.00 | 59 | 1011.0 |
| 20260509163913 | 71 | 137 | 3.0 | 5.0 | 0.00 | 0.00 | 0.00 | 58 | 1011.0 |
| 20260509163410 | 71 | 136 | 8.0 | 9.0 | 0.00 | 0.00 | 0.00 | 58 | 1010.9 |
| 20260509162909 | 72 | 132 | 1.0 | 1.0 | 0.00 | 0.00 | 0.00 | 57 | 1011.0 |
| 20260509162408 | 72 | 135 | 0.0 | 1.0 | 0.00 | 0.00 | 0.00 | 57 | 1010.9 |
| 20260509161903 | 72 | 127 | 0.0 | 1.0 | 0.00 | 0.00 | 0.00 | 56 | 1010.9 |
| 20260509161400 | 70 | 133 | 1.0 | 1.0 | 0.00 | 0.00 | 0.00 | 59 | 1011.0 |
| 20260509160855 | 70 | 137 | 2.0 | 3.0 | 0.00 | 0.00 | 0.00 | 58 | 1011.2 |
| 20260509160351 | 70 | 126 | 3.0 | 5.0 | 0.00 | 0.00 | 0.00 | 58 | 1011.3 |
| 20260509155846 | 71 | 125 | 6.0 | 7.0 | 0.00 | 0.00 | 0.00 | 59 | 1011.2 |
| 20260509155343 | 71 | 130 | 3.0 | 5.0 | 0.00 | 0.00 | 0.00 | 59 | 1011.6 |
| 20260509154840 | 71 | 136 | 1.0 | 2.0 | 0.00 | 0.00 | 0.00 | 59 | 1011.3 |
| 20260509154337 | 70 | 133 | 8.0 | 11.0 | 0.00 | 0.00 | 0.00 | 60 | 1011.4 |
| 20260509153833 | 70 | 126 | 9.0 | 11.0 | 0.00 | 0.00 | 0.00 | 59 | 1011.4 |
| 20260509153330 | 70 | 122 | 2.0 | 3.0 | 0.00 | 0.00 | 0.00 | 62 | 1011.3 |
| 20260509152827 | 71 | 122 | 0.0 | 1.0 | 0.00 | 0.00 | 0.00 | 60 | 1011.5 |
| 20260509152323 | 69 | 122 | 3.0 | 5.0 | 0.00 | 0.00 | 0.00 | 62 | 1011.6 |
| 20260509151821 | 70 | 122 | 2.0 | 3.0 | 0.00 | 0.00 | 0.00 | 61 | 1011.7 |
| 20260509151316 | 70 | 124 | 1.0 | 2.0 | 0.00 | 0.00 | 0.00 | 62 | 1011.8 |
| 20260509150815 | 69 | 123 | 1.0 | 1.0 | 0.00 | 0.00 | 0.00 | 61 | 1011.9 |
| 20260509150312 | 68 | 124 | 2.0 | 2.0 | 0.00 | 0.00 | 0.00 | 64 | 1012.0 |
| 20260509145809 | 69 | 124 | 2.0 | 3.0 | 0.00 | 0.00 | 0.00 | 62 | 1011.9 |
| 20260509145309 | 69 | 124 | 0.0 | 0.0 | 0.00 | 0.00 | 0.00 | 62 | 1012.2 |
| 20260509144806 | 67 | 124 | 1.0 | 1.0 | 0.00 | 0.00 | 0.00 | 66 | 1012.1 |
| 20260509144303 | 67 | 124 | 1.0 | 2.0 | 0.00 | 0.00 | 0.00 | 64 | 1012.2 |
| 20260509143800 | 66 | 124 | 1.0 | 2.0 | 0.00 | 0.00 | 0.00 | 66 | 1012.2 |
| 20260509143258 | 66 | 124 | 5.0 | 7.0 | 0.00 | 0.00 | 0.00 | 66 | 1012.3 |
| 20260509142753 | 66 | 124 | 0.0 | 1.0 | 0.00 | 0.00 | 0.00 | 66 | 1012.2 |